Location: Le Petit-Vavre
(46.5081°N, 1.5239°E)
Time: 13:16:29
(UTC+00:00)

Resurs 1-3 - Pass Details

Date: 03 March 2021
Orbit: 629 x 633 km, 97.9° (Epoch: 15 April)

Event Time Altitude Azimuth Distance (km) Brightness Sun altitude
Exits shadow 19:38:49 45° 63° (ENE) 865 3.9 -20.6°
Drops below altitude 10° 19:42:51 10° 358° (N) 2,027 6.4 -21.3°
Sets 19:45:07 0° 353° (N) 2,940 7.3 -21.7°
